Could not load TAF data: FEEDPACKAGE_TAF: could not Find TAF for station: KARB
Sereno con velature
Parzialmente nuvoloso
Parzialmente nuvoloso
Parzialmente nuvoloso
Parzialmente nuvoloso
Variabile
Variabile
(°C)
27°
27°
26°
26°
25°
25°
24°
24°
23°
23°
21°
21°
20°
20°
(°C)
27°
26°
24°
22°
20°
18°
17°
SSE
S
S
SSE
SE
SE
SE
(km/h)
10-20
11-21
11-23
13-25
14-27
14-29
14-29
(mm)
0
0
0
0
0
0
0
(%)
0
0
0
0
0
0
0

Elevazione del sole

/ 61.2°
sun-icon
UV 8
06:03
21:00
Gibbosa calante (192°)
22:47
06:21

METAR per Ann Arbor (KARB)

Ora Condizioni Temperatura/
Punto di rugiada
Vento Visibilità Meteo Nuvole Pressione Cambiamento Grezzo
VFR 25.6°C / 8.9°C 4kt >10km - Clear 1011 - KARB 241753Z VRB04KT 10SM CLR 26/09 A2988 RMK AO2 SLP117 T02560089 10261 20144 58011
VFR 25.6°C / 8.9°C 5kt >10km - Clear 1012 - KARB 241653Z VRB05KT 10SM CLR 26/09 A2991 RMK AO2 SLP126 T02560089
VFR 24.4°C / 7.2°C 150º 8kt >10km - Clear 1013 - KARB 241553Z 15008KT 10SM CLR 24/07 A2993 RMK AO2 SLP133 T02440072
VFR 22.8°C / 8.9°C 120º 7kt >10km - Clear 1012 - KARB 241453Z 12007KT 10SM CLR 23/09 A2992 RMK AO2 SLP129 T02280089 50003
VFR 22.2°C / 8.3°C 110º 4kt >10km - Clear 1012 - KARB 241353Z 11004KT 10SM CLR 22/08 A2992 RMK AO2 SLP129 T02220083
VFR 18.9°C / 12.8°C variable 0kt >10km - Clear 1012 - KARB 241253Z 00000KT 10SM CLR 19/13 A2992 RMK AO2 SLP127 T01890128
VFR 14.4°C / 11.7°C variable 0kt >10km - Clear 1012 - KARB 241153Z 00000KT 10SM CLR 14/12 A2991 RMK AO2 SLP124 T01440117 10144 20072 55002
VFR 8.9°C / 8.3°C variable 0kt >10km - Clear 1012 - KARB 241053Z AUTO 00000KT 10SM CLR 09/08 A2990 RMK AO2 SLP124 T00890083
MVFR 7.8°C / 7.2°C variable 0kt 4800m Mist Clear - KARB 241013Z AUTO 00000KT 3SM BR CLR 08/07 A2991 RMK AO2 T00780072
VFR 7.8°C / 7.2°C variable 0kt >10km - Clear 1012 - KARB 240953Z AUTO 00000KT 10SM CLR 08/07 A2991 RMK AO2 SLP127 T00780072
VFR 8.9°C / 8.3°C variable 0kt >10km - Clear 1012 - KARB 240853Z AUTO 00000KT 10SM CLR 09/08 A2991 RMK AO2 SLP128 T00890083 50000
VFR 8.9°C / 7.8°C variable 0kt >10km - Clear 1013 - KARB 240753Z AUTO 00000KT 10SM CLR 09/08 A2992 RMK AO2 SLP130 T00890078
VFR 10.6°C / 8.9°C variable 0kt >10km - Clear 1012 - KARB 240653Z AUTO 00000KT 10SM CLR 11/09 A2992 RMK AO2 SLP128 T01060089
VFR 11.1°C / 9.4°C 160º 3kt >10km - Clear 1012 - KARB 240553Z AUTO 16003KT 10SM CLR 11/09 A2991 RMK AO2 SLP127 T01110094 10233 20100 58003
VFR 11.1°C / 8.9°C variable 0kt >10km - Clear 1012 - KARB 240453Z AUTO 00000KT 10SM CLR 11/09 A2992 RMK AO2 SLP128 T01110089 402560083
VFR 10.6°C / 8.9°C variable 0kt >10km - Clear 1013 - KARB 240353Z AUTO 00000KT 10SM CLR 11/09 A2992 RMK AO2 SLP131 T01060089
VFR 12.8°C / 10.6°C variable 0kt >10km - Clear 1013 - KARB 240253Z AUTO 00000KT 10SM CLR 13/11 A2992 RMK AO2 SLP131 T01280106 53014
VFR 15°C / 9.4°C 330º 4kt >10km - Clear 1012 - KARB 240153Z AUTO 33004KT 10SM CLR 15/09 A2991 RMK AO2 SLP124 T01500094
VFR 22.2°C / 6.7°C 310º 4kt >10km - Few Clouds 8500ft 1011 - KARB 240053Z AUTO 31004KT 10SM FEW085 22/07 A2990 RMK AO2 SLP119 T02220067
VFR 23.3°C / 7.8°C 300º 5kt >10km - Clear 1011 - KARB 232353Z 30005KT 10SM CLR 23/08 A2988 RMK AO2 SLP115 T02330078 10256 20228 56008
VFR 24.4°C / 7.8°C 270º 7kt >10km - Clear 1011 - KARB 232253Z 27007KT 10SM CLR 24/08 A2989 RMK AO2 SLP119 T02440078
VFR 25°C / 7.8°C 240º 10kt Gust 19kt >10km - Clear 1012 - KARB 232153Z 24010G19KT 10SM CLR 25/08 A2990 RMK AO2 SLP121 T02500078
VFR 25°C / 8.3°C 270º 10kt >10km - Clear 1012 - KARB 232053Z 27010KT 10SM CLR 25/08 A2991 RMK AO2 SLP125 T02500083 56006
VFR 25.6°C / 8.3°C 260º 9kt >10km - Clear 1012 - KARB 231953Z 26009KT 10SM CLR 26/08 A2991 RMK AO2 SLP126 T02560083

VFR

25.6°C / 8.9°C

[Più]
Vento 4kt
Visibilità >10km
Meteo -
Nuvole Clear
Pressione 1011
Cambiamento -
Grezzo KARB 241753Z VRB04KT 10SM CLR 26/09 A2988 RMK AO2 SLP117 T02560089 10261 20144 58011

VFR

25.6°C / 8.9°C

[Più]
Vento 5kt
Visibilità >10km
Meteo -
Nuvole Clear
Pressione 1012
Cambiamento -
Grezzo KARB 241653Z VRB05KT 10SM CLR 26/09 A2991 RMK AO2 SLP126 T02560089

VFR

24.4°C / 7.2°C

[Più]
Vento 150º 8kt
Visibilità >10km
Meteo -
Nuvole Clear
Pressione 1013
Cambiamento -
Grezzo KARB 241553Z 15008KT 10SM CLR 24/07 A2993 RMK AO2 SLP133 T02440072

VFR

22.8°C / 8.9°C

[Più]
Vento 120º 7kt
Visibilità >10km
Meteo -
Nuvole Clear
Pressione 1012
Cambiamento -
Grezzo KARB 241453Z 12007KT 10SM CLR 23/09 A2992 RMK AO2 SLP129 T02280089 50003

VFR

22.2°C / 8.3°C

[Più]
Vento 110º 4kt
Visibilità >10km
Meteo -
Nuvole Clear
Pressione 1012
Cambiamento -
Grezzo KARB 241353Z 11004KT 10SM CLR 22/08 A2992 RMK AO2 SLP129 T02220083

VFR

18.9°C / 12.8°C

[Più]
Vento variable 0kt
Visibilità >10km
Meteo -
Nuvole Clear
Pressione 1012
Cambiamento -
Grezzo KARB 241253Z 00000KT 10SM CLR 19/13 A2992 RMK AO2 SLP127 T01890128

VFR

14.4°C / 11.7°C

[Più]
Vento variable 0kt
Visibilità >10km
Meteo -
Nuvole Clear
Pressione 1012
Cambiamento -
Grezzo KARB 241153Z 00000KT 10SM CLR 14/12 A2991 RMK AO2 SLP124 T01440117 10144 20072 55002

VFR

8.9°C / 8.3°C

[Più]
Vento variable 0kt
Visibilità >10km
Meteo -
Nuvole Clear
Pressione 1012
Cambiamento -
Grezzo KARB 241053Z AUTO 00000KT 10SM CLR 09/08 A2990 RMK AO2 SLP124 T00890083

MVFR

7.8°C / 7.2°C

[Più]
Vento variable 0kt
Visibilità 4800m
Meteo Mist
Nuvole Clear
Pressione
Cambiamento -
Grezzo KARB 241013Z AUTO 00000KT 3SM BR CLR 08/07 A2991 RMK AO2 T00780072

VFR

7.8°C / 7.2°C

[Più]
Vento variable 0kt
Visibilità >10km
Meteo -
Nuvole Clear
Pressione 1012
Cambiamento -
Grezzo KARB 240953Z AUTO 00000KT 10SM CLR 08/07 A2991 RMK AO2 SLP127 T00780072

VFR

8.9°C / 8.3°C

[Più]
Vento variable 0kt
Visibilità >10km
Meteo -
Nuvole Clear
Pressione 1012
Cambiamento -
Grezzo KARB 240853Z AUTO 00000KT 10SM CLR 09/08 A2991 RMK AO2 SLP128 T00890083 50000

VFR

8.9°C / 7.8°C

[Più]
Vento variable 0kt
Visibilità >10km
Meteo -
Nuvole Clear
Pressione 1013
Cambiamento -
Grezzo KARB 240753Z AUTO 00000KT 10SM CLR 09/08 A2992 RMK AO2 SLP130 T00890078

VFR

10.6°C / 8.9°C

[Più]
Vento variable 0kt
Visibilità >10km
Meteo -
Nuvole Clear
Pressione 1012
Cambiamento -
Grezzo KARB 240653Z AUTO 00000KT 10SM CLR 11/09 A2992 RMK AO2 SLP128 T01060089

VFR

11.1°C / 9.4°C

[Più]
Vento 160º 3kt
Visibilità >10km
Meteo -
Nuvole Clear
Pressione 1012
Cambiamento -
Grezzo KARB 240553Z AUTO 16003KT 10SM CLR 11/09 A2991 RMK AO2 SLP127 T01110094 10233 20100 58003

VFR

11.1°C / 8.9°C

[Più]
Vento variable 0kt
Visibilità >10km
Meteo -
Nuvole Clear
Pressione 1012
Cambiamento -
Grezzo KARB 240453Z AUTO 00000KT 10SM CLR 11/09 A2992 RMK AO2 SLP128 T01110089 402560083

VFR

10.6°C / 8.9°C

[Più]
Vento variable 0kt
Visibilità >10km
Meteo -
Nuvole Clear
Pressione 1013
Cambiamento -
Grezzo KARB 240353Z AUTO 00000KT 10SM CLR 11/09 A2992 RMK AO2 SLP131 T01060089

VFR

12.8°C / 10.6°C

[Più]
Vento variable 0kt
Visibilità >10km
Meteo -
Nuvole Clear
Pressione 1013
Cambiamento -
Grezzo KARB 240253Z AUTO 00000KT 10SM CLR 13/11 A2992 RMK AO2 SLP131 T01280106 53014

VFR

15°C / 9.4°C

[Più]
Vento 330º 4kt
Visibilità >10km
Meteo -
Nuvole Clear
Pressione 1012
Cambiamento -
Grezzo KARB 240153Z AUTO 33004KT 10SM CLR 15/09 A2991 RMK AO2 SLP124 T01500094

VFR

22.2°C / 6.7°C

[Più]
Vento 310º 4kt
Visibilità >10km
Meteo -
Nuvole Few Clouds 8500ft
Pressione 1011
Cambiamento -
Grezzo KARB 240053Z AUTO 31004KT 10SM FEW085 22/07 A2990 RMK AO2 SLP119 T02220067

VFR

23.3°C / 7.8°C

[Più]
Vento 300º 5kt
Visibilità >10km
Meteo -
Nuvole Clear
Pressione 1011
Cambiamento -
Grezzo KARB 232353Z 30005KT 10SM CLR 23/08 A2988 RMK AO2 SLP115 T02330078 10256 20228 56008

VFR

24.4°C / 7.8°C

[Più]
Vento 270º 7kt
Visibilità >10km
Meteo -
Nuvole Clear
Pressione 1011
Cambiamento -
Grezzo KARB 232253Z 27007KT 10SM CLR 24/08 A2989 RMK AO2 SLP119 T02440078

VFR

25°C / 7.8°C

[Più]
Vento 240º 10kt Gust 19kt
Visibilità >10km
Meteo -
Nuvole Clear
Pressione 1012
Cambiamento -
Grezzo KARB 232153Z 24010G19KT 10SM CLR 25/08 A2990 RMK AO2 SLP121 T02500078

VFR

25°C / 8.3°C

[Più]
Vento 270º 10kt
Visibilità >10km
Meteo -
Nuvole Clear
Pressione 1012
Cambiamento -
Grezzo KARB 232053Z 27010KT 10SM CLR 25/08 A2991 RMK AO2 SLP125 T02500083 56006

VFR

25.6°C / 8.3°C

[Più]
Vento 260º 9kt
Visibilità >10km
Meteo -
Nuvole Clear
Pressione 1012
Cambiamento -
Grezzo KARB 231953Z 26009KT 10SM CLR 26/08 A2991 RMK AO2 SLP126 T02560083

rainNOW: Pioggia nowcast per Ann Arbor e dintorni (raggio di 25 km)

0.0 mm
0.0 mm
0.0 mm
0.0 mm
0.0 mm
0.0 mm
0.0 mm
0.0 mm
0.0 mm
0.0 mm
0.0 mm
0.0 mm

Radar e nowcasting per Ann Arbor

Pioviggine
Lieve
Moderato
Forte
Molto forte
Grandine

Il segnaposto è situato a Ann Arbor. Questa animazione mostra il radar delle precipitazioni per l'intervallo di tempo selezionato, nonché una previsione di 1h. Le croci arancioni indicano i fulmini. Dati forniti da nowcast.de (disponibili in USA, Europa e Australia). La pioviggine o una leggera nevicata potrebbero essere invisibili per il radar. L'intensità delle precipitazioni è codificata a colori, che vanno dal turchese al rosso.

Immagine satellitare per Ann Arbor, Stati Uniti

Il segnaposto è situato a Ann Arbor. [Più]

L'immagine satellitare in tempo reale combina la luce visibile durante il giorno con la radiazione infrarossa durante la notte. Di notte l'immagine non è scura poiché i raggi infrarossi possono rilevare differenze di temperatura. Purtroppo, le nuvole basse e la nebbia sono difficili da distinguere dalla temperatura del suolo e possono pertanto essere quasi invisibili durante la notte. Le immagini satellitari Meteosat per l'Europa vengono aggiornate in tempo reale ogni 5 minuti. Le immagini GOES-16 / GOES-17 (Nord e Sud America) e Himawari (Asia) vengono aggiornate ogni 10 minuti.

Le precipitazioni sono stimate da radar e satelliti. I calcoli delle precipitazioni dai satelliti sono meno accurati di notte che durante il giorno.

© 2024 meteoblue, NOAA Satellites GOES-16 and EUMETSAT. Fulminazioni fornite da nowcast.

Could not load TAF data: FEEDPACKAGE_TAF: could not Find TAF for station: KARB
Tornare su
×
Salve,
sembra che stiate usando un blocco degli annunci.

La pubblicità è essenziale per mantenere il nostro sito Web gratuito con dettagli e accuratezza unici.

Si prega di inserire www.meteoblue.com nella whitelist del vostro blocco degli annunci o di considerare l'acquisto di uno dei nostri prodotti:

Avete già un abbonamento?
Allora per favore eseguite il login.